QPF
0.00 0.00 0.00 0.00 0.00 0.00 0.00 0.00 0.00 0.00 0.00 0.00 0.00 0.00 0.00 0.00 0.00 0.00 0.01 0.02 0.03 0.02 0.02 0.02 0.02 0.02 0.03
0.03 0.04 0.02 0.00 0.00 0.00 0.00 0.00 0.00 0.00 0.00 0.00 0.00 0.00 0.00 0.00 0.00 0.00 0.00 0.02 0.04 0.05 0.04 0.02 0.01 0.00 0.00
0.05 0.04 0.02 0.00 0.00 0.00 0.00 0.00 0.00 0.00 0.00 0.00 0.00 0.00 0.00 0.00 0.00 0.00 0.00 0.00 0.01 0.02 0.05 0.08 0.03 0.00 0.00
0.02 0.01 0.00 0.00 0.00 0.00 0.00 0.00 0.00 0.00 0.00 0.00 0.01 0.01 0.01 0.01 0.00 0.00 0.01 0.01 0.01 0.01 0.01 0.00 0.00 0.00 0.00
0.05 0.04 0.02 0.01 0.00 0.00 0.00 0.00 0.00 0.00 0.01 0.04 0.11 0.11 0.08 0.03 0.01 0.01 0.00 0.00 0.00 0.01 0.01 0.00 0.00 0.00 0.00
0.04 0.04 0.03 0.02 0.01 0.01 0.00 0.00 0.00 0.00 0.02 0.03 0.06 0.14 0.23 0.24 0.19 0.07 0.02 0.01 0.00 0.00 0.01 0.00 0.00 0.00 0.00
0.01 0.02 0.02 0.02 0.02 0.02 0.01 0.00 0.02 0.04 0.04 0.03 0.04 0.08 0.08 0.12 0.15 0.13 0.11 0.09 0.05 0.02 0.00 0.00 0.00 0.00 0.00
0.01 0.02 0.03 0.03 0.02 0.02 0.00 0.00 0.01 0.01 0.02 0.03 0.04 0.07 0.08 0.06 0.06 0.05 0.05 0.04 0.02 0.02 0.01 0.00 0.00 0.00 0.01
0.01 0.01 0.03 0.03 0.01 0.01 0.00 0.00 0.01 0.00 0.01 0.02 0.04 0.10 0.10 0.07 0.02 0.02 0.00 0.00 0.00 0.00 0.00 0.01 0.00 0.00 0.03
0.00 0.00 0.00 0.00 0.00 0.00 0.00 0.00 0.00 0.00 0.00 0.01 0.02 0.04 0.05 0.03 0.02 0.01 0.01 0.01 0.01 0.02 0.02 0.02 0.01 0.00 0.00
0.00 0.00 0.01 0.01 0.00 0.00 0.00 0.00 0.01 0.01 0.01 0.02 0.03 0.06 0.08 0.05 0.05 0.06 0.05 0.05 0.02 0.02 0.02 0.03 0.03 0.03 0.02
0.00 0.00 0.00 0.00 0.01 0.01 0.01 0.01 0.02 0.03 0.05 0.05 0.03 0.03 0.04 0.05 0.04 0.04 0.04 0.05 0.04 0.03 0.04 0.06 0.05 0.07 0.08
0.00 0.00 0.00 0.00 0.00 0.00 0.00 0.00 0.00 0.01 0.01 0.00 0.01 0.01 0.00 0.00 0.01 0.02 0.04 0.04 0.04 0.04 0.03 0.02 0.03 0.04 0.03
0.00 0.00 0.00 0.00 0.00 0.00 0.00 0.00 0.00 0.00 0.00 0.02 0.01 0.00 0.00 0.00 0.00 0.00 0.01 0.01 0.01 0.01 0.00 0.00 0.00 0.00 0.00
0.00 0.00 0.00 0.00 0.00 0.00 0.00 0.00 0.00 0.00 0.00 0.00 0.00 0.00 0.00 0.00 0.00 0.00 0.00 0.00 0.00 0.00 0.00 0.00 0.00 0.00 0.00
0.00 0.00 0.00 0.00 0.00 0.00 0.00 0.00 0.00 0.00 0.00 0.00 0.00 0.00 0.00 0.00 0.00 0.00 0.00 0.00 0.00 0.00 0.00 0.00 0.00 0.00 0.00
0.00 0.00 0.00 0.00 0.00 0.00 0.00 0.00 0.00 0.00 0.00 0.00 0.00 0.00 0.00 0.00 0.00 0.00 0.00 0.00 0.00 0.00 0.00 0.00 0.00 0.00 0.00
MSLP
1006.35 1005.94 1005.96 1005.75 1005.56 1005.47 1005.42 1005.38 1005.28 1005.09 1004.88 1004.72 1004.65 1004.68 1004.70 1004.77 1004.96 1005.09 1005.31 1005.57 1006.03 1006.43 1006.74 1007.35 1007.78 1008.07 1008.25
1005.47 1005.26 1004.92 1004.96 1004.79 1004.72 1004.66 1004.55 1004.54 1004.22 1003.96 1003.83 1003.82 1003.78 1003.86 1003.94 1004.13 1004.32 1004.47 1004.72 1005.09 1005.57 1005.89 1006.28 1006.64 1006.97 1007.32
1004.86 1004.66 1004.55 1004.34 1004.27 1004.09 1003.82 1003.78 1003.72 1003.28 1003.13 1003.08 1002.95 1002.87 1003.06 1003.24 1003.48 1003.79 1003.91 1004.20 1004.53 1004.88 1005.22 1005.52 1004.92 1005.98 1006.30
1004.72 1004.00 1003.83 1003.68 1003.82 1003.56 1003.51 1003.37 1003.23 1002.92 1002.63 1002.49 1002.37 1002.24 1002.32 1002.60 1002.85 1003.09 1003.47 1003.72 1004.04 1004.33 1004.59 1004.86 1005.14 1005.26 1005.71
1003.94 1003.24 1003.18 1003.12 1003.06 1003.16 1003.24 1003.06 1002.88 1002.42 1002.16 1002.09 1002.13 1002.11 1002.07 1002.04 1002.37 1002.37 1002.67 1003.11 1003.53 1003.87 1004.01 1004.23 1004.61 1004.87 1005.06
1003.80 1002.79 1002.34 1002.26 1002.40 1002.71 1002.81 1003.07 1002.85 1001.91 1002.05 1002.10 1002.14 1002.19 1002.50 1002.16 1002.23 1002.28 1002.59 1002.72 1003.09 1003.46 1003.60 1003.83 1004.00 1004.15 1004.32
1003.40 1002.70 1002.08 1001.87 1002.02 1002.25 1002.30 1002.53 1002.37 1002.24 1002.08 1002.15 1002.51 1002.75 1003.07 1002.95 1002.57 1002.51 1002.57 1002.74 1002.84 1003.22 1003.35 1003.49 1003.43 1003.27 1003.40
1003.62 1003.12 1002.73 1002.33 1002.03 1001.78 1001.91 1002.05 1002.21 1002.34 1002.02 1002.52 1002.94 1003.52 1003.69 1003.50 1003.16 1002.84 1002.64 1002.85 1002.85 1002.85 1002.78 1002.94 1002.79 1002.51 1002.64
1003.79 1003.50 1003.14 1002.93 1002.63 1002.25 1002.08 1002.25 1002.33 1002.30 1002.14 1002.18 1003.09 1003.73 1003.94 1004.00 1003.58 1003.27 1002.97 1003.01 1002.99 1003.17 1003.11 1003.45 1003.31 1002.87 1003.00
1003.84 1003.56 1003.51 1003.34 1003.02 1002.59 1002.41 1002.24 1002.22 1002.51 1002.02 1002.36 1003.06 1003.47 1004.37 1004.46 1004.31 1004.08 1003.82 1003.82 1003.88 1003.65 1003.62 1003.85 1003.82 1003.70 1003.89
1003.96 1003.80 1003.76 1003.64 1003.38 1003.01 1002.72 1002.39 1002.20 1002.12 1002.26 1002.42 1002.97 1003.35 1004.01 1004.84 1004.93 1004.74 1004.66 1004.61 1004.60 1004.51 1004.43 1004.44 1004.40 1004.33 1004.85
1004.21 1004.27 1004.23 1004.24 1003.97 1003.61 1003.20 1002.79 1002.54 1002.50 1002.52 1002.49 1002.72 1002.82 1003.58 1004.71 1005.22 1005.48 1005.53 1005.51 1005.33 1005.42 1005.49 1005.40 1005.51 1005.44 1005.58
1004.48 1004.56 1004.54 1004.56 1004.26 1003.83 1003.57 1003.46 1003.31 1003.26 1003.06 1002.94 1002.88 1003.05 1003.33 1004.14 1005.03 1005.79 1006.07 1006.40 1006.24 1006.28 1006.40 1006.41 1006.52 1006.60 1006.74
1004.69 1004.79 1004.84 1004.66 1004.71 1004.72 1004.49 1004.47 1004.27 1004.32 1004.12 1003.65 1003.40 1003.50 1004.36 1004.79 1004.99 1005.97 1006.44 1006.87 1007.08 1007.07 1007.08 1007.21 1007.29 1007.40 1007.51
1004.97 1004.93 1005.05 1005.14 1005.36 1005.65 1005.54 1005.38 1005.74 1006.21 1005.79 1005.23 1004.74 1004.63 1005.14 1005.51 1006.20 1006.88 1007.32 1007.66 1007.87 1007.82 1007.78 1007.98 1007.89 1007.88 1007.90
1005.24 1005.25 1005.44 1005.67 1005.99 1006.07 1006.21 1006.54 1006.91 1007.25 1007.13 1006.76 1006.46 1006.18 1006.35 1006.86 1006.96 1007.69 1008.08 1008.41 1008.52 1008.28 1008.36 1008.61 1008.50 1008.32 1008.29
1005.71 1005.96 1005.99 1006.05 1006.61 1006.88 1007.01 1007.32 1007.81 1007.84 1007.81 1007.55 1007.46 1007.70 1008.05 1008.16 1008.16 1008.02 1008.28 1008.75 1008.77 1008.76 1008.85 1008.92 1008.89 1008.61 1008.47
Thickness
5606 5606 5604 5604 5604 5604 5605 5606 5608 5611 5613 5616 5617 5618 5618 5619 5620 5621 5621 5622 5620 5618 5618 5614 5613 5616 5621
5600 5598 5597 5594 5593 5593 5594 5596 5599 5602 5605 5608 5609 5609 5609 5610 5611 5612 5614 5614 5614 5612 5612 5611 5609 5610 5611
5591 5588 5585 5582 5579 5580 5582 5585 5589 5594 5596 5597 5599 5601 5600 5601 5601 5601 5603 5603 5604 5604 5604 5606 5598 5605 5605
5579 5581 5577 5575 5569 5571 5572 5573 5579 5583 5587 5588 5588 5589 5590 5590 5590 5590 5591 5592 5593 5594 5596 5596 5597 5598 5597
5575 5576 5573 5569 5569 5565 5565 5567 5569 5574 5578 5577 5577 5576 5575 5574 5574 5578 5580 5581 5582 5583 5585 5586 5587 5587 5588
5564 5571 5571 5568 5565 5561 5559 5557 5562 5567 5565 5566 5562 5560 5555 5558 5559 5563 5564 5568 5571 5572 5574 5575 5577 5580 5582
5558 5563 5566 5563 5560 5557 5555 5554 5554 5552 5554 5555 5547 5543 5540 5541 5544 5549 5553 5555 5558 5559 5563 5565 5569 5573 5574
5541 5544 5544 5546 5548 5550 5550 5548 5542 5540 5542 5542 5533 5527 5526 5528 5533 5536 5542 5543 5546 5549 5554 5557 5562 5567 5568
5529 5530 5531 5531 5532 5534 5538 5537 5537 5534 5531 5532 5523 5517 5516 5517 5523 5526 5531 5533 5535 5537 5541 5541 5545 5552 5554
5517 5518 5517 5517 5519 5522 5524 5531 5525 5521 5524 5520 5514 5512 5506 5506 5509 5512 5516 5516 5518 5523 5527 5528 5531 5535 5536
5505 5506 5505 5504 5506 5508 5511 5516 5517 5516 5514 5511 5506 5504 5501 5496 5495 5498 5500 5502 5505 5508 5512 5514 5516 5518 5516
5492 5492 5491 5490 5491 5494 5498 5503 5505 5505 5503 5502 5500 5503 5498 5491 5489 5485 5485 5487 5490 5492 5494 5497 5497 5497 5498
5477 5479 5479 5478 5481 5486 5488 5489 5490 5491 5492 5491 5492 5492 5493 5490 5484 5478 5476 5473 5476 5477 5479 5481 5480 5480 5480
5462 5464 5465 5469 5470 5471 5474 5474 5477 5477 5477 5480 5482 5482 5478 5476 5477 5470 5467 5466 5463 5465 5466 5466 5468 5468 5468
5444 5449 5453 5453 5454 5453 5453 5455 5453 5451 5456 5461 5466 5468 5465 5464 5461 5456 5454 5452 5450 5452 5453 5452 5454 5456 5458
5430 5435 5437 5437 5436 5439 5440 5437 5438 5436 5438 5439 5443 5447 5448 5447 5446 5440 5436 5435 5437 5440 5441 5438 5442 5446 5448
5412 5415 5420 5425 5421 5422 5424 5424 5425 5424 5425 5426 5424 5421 5414 5429 5428 5429 5424 5425 5427 5428 5430 5429 5429 5434 5437